Paulo Ribeiro

Olheiro - Santos
4 Abr 2027
Domingo
Processo

Personalidade

Adaptabilidade (7) Ambição (3) Controvérsia (15) Lealdade (5) Pressão (3) Profissionalismo (3) Espírito Esportivo (2) Temperamento (5)

Perfil

Estilo de Treinamento Democrático
Licença Continental Pro
Determinação 8
Gestão de Pessoas 10
Motivação 11
Disciplina 14
Satisfação no Trabalho
49%
Fadiga
0%
Função Olheiro
Salário 58.5K p/s
Contrato 14.03.2028

Desempenho

Comportamento Normal
Eficácia do Treinamento
35%
Desenvolvimento do Jogador
50%
Prevenção de Lesões
25%
Implementação Tática
70%

Eventos Recentes

Participou de uma reunião de recrutamento 7d atrás
Avaliou um jogador 7d atrás
Participou de uma reunião de recrutamento 14d atrás
Avaliou um jogador 14d atrás
Avaliou um jogador 14d atrás
Avaliou um jogador 14d atrás
Participou de uma reunião de recrutamento 21d atrás
Participou de uma reunião de recrutamento 28d atrás

Monitorando agora

69
Jogador Clube Status Habilidade Confiança Observado Última observação Último voto
Willer Ditta Cruz Azul Ativo 129 / 124 40% 3 02.04.2027 -
Chris Rigg Sunderland Ativo 120 / 153 40% 1 02.04.2027 -
Liam Varela Veracruz Ativo 148 / 136 40% 3 28.03.2027 -
Facundo Garcés Alavés Ativo 137 / 114 40% 1 28.03.2027 -
Erik Lira Cruz Azul Ativo 126 / 128 40% 2 19.03.2027 -
Samuele Birindelli Monza Ativo 115 / 123 40% 1 19.03.2027 -
Pablo Maffeo Olympiacos Ativo 147 / 143 40% 2 18.03.2027 -
Jhohan Romaña Leon Ativo 120 / 142 40% 1 18.03.2027 -
Ben Sheaf Wrexham Ativo 115 / 117 40% 1 16.03.2027 -
Pedro Henrique Shakhtar Ativo 142 / 145 40% 1 16.03.2027 -
Carlos Rodríguez Cruz Azul Ativo 143 / 126 40% 2 27.11.2026 -
Marquinhos Spartak Moscow Ativo 119 / 128 40% 1 27.11.2026 -
Luciano Juba Bahia Ativo 141 / 140 40% 1 26.11.2026 -
Leandro Andrade Polissia Ativo 121 / 125 40% 1 26.11.2026 -
Gérson Cruzeiro Ativo 137 / 147 40% 2 25.11.2026 -
Teboho Mokoena Mamelodi Sundowns Ativo 142 / 127 40% 2 24.11.2026 -
Lyanco Atlético Mineiro Ativo 138 / 136 40% 2 24.11.2026 -
Alexis Vega Toluca Ativo 133 / 131 40% 2 19.11.2026 -
José Paradela Cruz Azul Ativo 140 / 140 40% 4 17.11.2026 -
Marquinhos APOEL Ativo 117 / 131 40% 1 15.11.2026 -
Marcel Ruiz Toluca Ativo 142 / 143 40% 1 13.11.2026 -
Alejandro Zendejas Club America Ativo 155 / 140 40% 1 12.11.2026 -
Esequiel Barco Spartak Moscow Ativo 121 / 123 40% 1 12.11.2026 -
Jhon Arias Palmeiras Ativo 141 / 141 40% 1 11.11.2026 -
Luis Sinisterra Cruzeiro Ativo 138 / 147 40% 1 11.11.2026 -
Santi García Gil Vicente Ativo 143 / 127 40% 1 04.11.2026 -
Riqui Puig LA Galaxy Ativo 131 / 147 40% 1 04.11.2026 -
William Gomes Porto Ativo 136 / 151 40% 2 03.11.2026 -
Othmane Maamma Watford Ativo 121 / 133 40% 1 03.11.2026 -
Bruno Méndez Toluca Ativo 131 / 119 40% 1 01.11.2026 -
Ismaël Bennacer Palmeiras Ativo 137 / 148 40% 1 01.11.2026 -
Santiago Ascacíbar Boca Juniors Ativo 131 / 124 40% 1 28.10.2026 -
Sergio Reguilón Inter Miami CF Ativo 130 / 148 40% 2 27.10.2026 -
Rodrigo Huescas FC Copenhagen Ativo 117 / 143 40% 2 25.10.2026 -
Lorenzo Amatucci Deportivo La Coruña Ativo 113 / 120 40% 1 23.10.2026 -
Sergio Barreto Pachuca Ativo 119 / 129 40% 1 23.10.2026 -
Matheus Henrique Cruzeiro Ativo 129 / 137 40% 3 22.10.2026 -
Jordan Holsgrove Estoril Praia Ativo 124 / 144 40% 1 22.10.2026 -
Matija Mitrović Vitoria Guimaraes Ativo 127 / 132 40% 1 21.10.2026 -
Israel Reyes Club America Ativo 121 / 151 40% 1 20.10.2026 -
Javi Sánchez Arouca Ativo 148 / 135 40% 1 20.10.2026 -
Vitinho Botafogo Ativo 134 / 139 40% 2 06.10.2026 -
Keagan Hlatshwayo SuperSport United Ativo 114 / 116 40% 1 06.10.2026 -
Kevin Lomónaco Independiente Ativo 123 / 124 40% 2 04.10.2026 -
Luca Orellano Monterrey Ativo 138 / 121 40% 1 30.09.2026 -
Agustín Palavecino Cruz Azul Ativo 142 / 143 40% 1 30.09.2026 -
Mathías Villasanti Grêmio Ativo 129 / 136 40% 1 29.09.2026 -
Exequiel Zeballos Boca Juniors Ativo 138 / 143 40% 1 28.09.2026 -
Veljko Birmančević Ferencvaros Ativo 121 / 146 40% 1 28.09.2026 -
Eduardo Quaresma Sporting CP Ativo 122 / 132 40% 2 27.09.2026 -
Jesús Ricardo Angulo Toluca Ativo 114 / 127 40% 1 23.09.2026 -
Gustaf Lagerbielke Braga Ativo 147 / 120 40% 1 23.09.2026 -
Alessandro Circati Benfica Ativo 116 / 130 40% 2 20.09.2026 -
Bruno Gomes Internacional Ativo 139 / 131 40% 1 19.09.2026 -
Danilo Botafogo Ativo 147 / 138 40% 1 18.09.2026 -
Guilherme Arana Fluminense Ativo 125 / 129 40% 3 15.09.2026 -
Vitor Carvalho Braga Ativo 122 / 146 40% 1 14.09.2026 -
Kevin Álvarez Club America Ativo 123 / 124 40% 1 08.09.2026 -
Paulinho Palmeiras Ativo 132 / 129 40% 1 07.09.2026 -
Samuel Lino Flamengo Ativo 146 / 126 40% 1 07.09.2026 -
Ritsu Doan Gamba Osaka Ativo 148 / 140 40% 1 02.09.2026 -
Jefferson Savarino Fluminense Ativo 123 / 138 40% 1 30.08.2026 -
Luís Guilherme Sporting CP Ativo 114 / 135 40% 1 30.08.2026 -
Gianluca Prestianni Benfica Ativo 128 / 132 40% 1 25.08.2026 -
Nicolás de la Cruz Flamengo Ativo 144 / 145 40% 1 20.08.2026 -
Gonçalo Moreira Benfica Ativo 127 / 119 40% 1 19.08.2026 -
Richard Ledezma Guadalajara Ativo 117 / 123 40% 1 14.08.2026 -
Francisco Moura Porto Ativo 124 / 152 40% 1 12.08.2026 -
Renan Lodi Atlético Mineiro Ativo 145 / 132 40% 1 01.08.2026 -